Regional Weather Roundup
Issued by NWS

Home | Current Version | Previous Version | Graphics & Text | Print | Product List | Glossary On
Versions: 1 2 3 4 5 6 7 8 9 10 11 12 13 14 15 16 17 18 19 20 21 22 23 24 25 26 27 28 29 30 31 32 33 34 35 36 37 38 39 40 41 42 43 44 45 46 47 48 49 50
000
ASUS43 KTOP 170859
RWRKS

WEATHER ROUNDUP FOR KANSAS
NATIONAL WEATHER SERVICE GOODLAND KS
400 AM CDT WED SEP 17 2014

NOTE:  "FAIR" INDICATES FEW OR NO CLOUDS BELOW 12,000 FEET WITH NO
SIGNIFICANT WEATHER AND/OR OBSTRUCTIONS TO VISIBILITY.

KSZ001>006-013>018-027>032-041>047-171000-
NORTHWEST KANSAS

CITY           SKY/WX    TMP DP  RH WIND       PRES   REMARKS
GOODLAND       CLEAR     56  50  80 W6        29.99F
HAYS           CLEAR     63  57  82 SW5       29.91F
HILL CITY      FOG       53  52  96 CALM      29.91F VSB 1/2
RUSSELL        CLEAR     65  63  93 S13       29.89F
$$

KSZ061>065-074>080-084>089-171000-
SOUTHWEST KANSAS

CITY           SKY/WX    TMP DP  RH WIND       PRES   REMARKS
DODGE CITY     CLEAR     65  60  84 SW14      29.96F
ELKHART          N/A     63  58  84 SW10        N/A
GARDEN CITY    CLEAR     61  59  93 S7        29.95F
GREAT BEND     CLEAR     64  61  88 S10       29.93F
LIBERAL        CLEAR     63  57  82 S12       29.99F
$$

KSZ066>073-081>083-090>101-171000-
SOUTHEAST KANSAS

CITY           SKY/WX    TMP DP  RH WIND       PRES   REMARKS
CHANUTE        MOCLDY    65  64  97 S7        29.95F FOG
COFFEYVILLE    PTCLDY    67  66  97 S5        29.95F FOG
HUTCHINSON     CLOUDY    69  65  86 S12       29.94F
NEWTON         PTCLDY    64  61  88 S10       29.97F
PARSONS        MOCLDY    68  67  96 SE3       29.96F FOG
WICHITA INTL   MOCLDY    65  63  93 S6        29.95F FOG
WICHITA JABRA  PTCLDY    65  64  97 S7        29.95F
WINFIELD       CLEAR     69  67  93 S9        29.97F
$$

KSZ007>012-019>026-033>040-048>060-102>105-171000-
NORTHEAST KANSAS

CITY           SKY/WX    TMP DP  RH WIND       PRES   REMARKS
CONCORDIA      CLOUDY    59  59 100 CALM      29.90F
EMPORIA        MOCLDY    65  64  97 SE9       29.94F
LAWRENCE       LGT RAIN  63  60  90 SE3       29.95F FOG
MANHATTAN      CLOUDY    64  62  93 CALM      29.92F
OLATHE IND     LGT RAIN  63  61  93 SE7       29.95F FOG
OLATHE EXE     CLOUDY    62  60  93 SE8       29.95F
SALINA         CLOUDY    69  65  86 S14       29.92F
TOPEKA BILLARD RAIN      65  62  90 SE5       29.93F FOG
TOPEKA FORBES  MOCLDY    63  61  93 SE5       29.94F
$$


USA.gov is the U.S. government's official web portal to all federal, state and local government web resources and services.